Pittsfield, MA

3:27 AM EDT on August 25, 2019 (GMT -0400)
Pittsfield Municipal

Weather History for KPSF - June, 2019

Change the Weather History Date:

Thursday, June 6, 2019

  Actual Average Record
Temperature  
Mean Temperature 64 °F 61 °F  
Max Temperature 75 °F 72 °F 96 °F (1930)
Min Temperature 54 °F 50 °F 33 °F (1964)
Degree Days  
Heating Degree Days 0 5  
Month to date heating degree days 30 34  
Since 1 June heating degree days 30 34  
Since 1 July heating degree days 6935 7394  
Cooling Degree Days 0 1  
Month to date cooling degree days 1 6  
Year to date cooling degree days 7 19  
Since 1 June cooling degree days 1 6  
Growing Degree Days 14 (Base 50)    
Moisture  
Dew Point 60 °F    
Average Humidity 79    
Maximum Humidity 96    
Minimum Humidity 49    
Precipitation  
Precipitation 0.21 in 0.18 in 1.50 in (2008)
Month to date precipitation 0.99 1.08  
Year to date precipitation 18.71 18.12  
Sea Level Pressure  
Sea Level Pressure 29.70 in    
Wind  
Wind Speed 4 mph ()    
Max Wind Speed 16 mph    
Max Gust Speed 21 mph    
Visibility 7.7 miles    
Events Rain    
T = Trace of Precipitation, MM = Missing Value Source: Averaged Metar Reports

Daily Weather History Graph

Daily Weather History Graph

Search for Another Location

Airport or City:

Astronomy

Jun. 06, 2019 Rise Set
Actual Time 5:16 AM EDT 8:27 PM EDT
Civil Twilight 4:42 AM EDT 9:01 PM EDT
Nautical Twilight 3:58 AM EDT 9:45 PM EDT
Astronomical Twilight 3:05 AM EDT 10:38 PM EDT
Moon 8:22 AM EDT (6/6) 11:41 PM EDT (6/6)
Length of Visible Light 16h 19m
Length of Day
15h 10m
Waxing Crescent, 13% of the Moon is Illuminated
Jun 6
Waxing Crescent
Jun 10
First Quarter
Jun 17
Full
Jun 25
Last Quarter
Jul 2
New

Hourly Weather History & Observations

Time (EDT) Temp. Dew Point Humidity Pressure Visibility Wind Dir Wind Speed Gust Speed Precip Events Conditions
12:08 AM 64.0 °F 62.1 °F 93% 29.70 in 1.2 mi Calm Calm - N/A   Overcast
12:15 AM 64.0 °F 62.1 °F 93% 29.70 in 1.0 mi Calm Calm - N/A   Overcast
12:33 AM 64.0 °F 62.1 °F 93% 29.70 in 2.5 mi Calm Calm - 0.00 in Rain Light Rain
12:54 AM 64.0 °F 62.1 °F 93% 29.62 in 2.0 mi Calm Calm - 0.01 in Rain Light Rain
1:05 AM 64.0 °F 63.0 °F 96% 29.69 in 1.5 mi Calm Calm - 0.01 in Rain Light Rain
1:15 AM 64.0 °F 62.1 °F 93% 29.69 in 1.2 mi Calm Calm - 0.01 in   Overcast
1:43 AM 64.0 °F 62.1 °F 93% 29.68 in 0.8 mi Calm Calm - 0.03 in Rain Light Rain
1:54 AM 64.0 °F 62.1 °F 93% 29.60 in 1.0 mi Calm Calm - 0.06 in Rain Rain
2:14 AM 64.0 °F 62.1 °F 93% 29.66 in 2.0 mi Calm Calm - 0.05 in Rain Light Rain
2:24 AM 66.0 °F 63.0 °F 90% 29.65 in 6.0 mi SW 6.9 mph - 0.05 in Rain Light Rain
2:54 AM 66.9 °F 64.0 °F 90% 29.57 in 7.0 mi SW 8.1 mph - 0.05 in Rain Light Rain
3:43 AM 66.9 °F 64.0 °F 90% 29.64 in 7.0 mi WSW 6.9 mph - 0.01 in   Overcast
3:54 AM 66.9 °F 64.0 °F 90% 29.56 in 6.0 mi WSW 6.9 mph - 0.01 in Rain Light Rain
4:54 AM 66.9 °F 63.0 °F 87% 29.57 in 8.0 mi SW 6.9 mph - 0.01 in   Overcast
5:54 AM 66.0 °F 63.0 °F 90% 29.59 in 7.0 mi SW 11.5 mph - 0.06 in Rain Light Rain
6:54 AM 66.0 °F 62.1 °F 87% 29.61 in 10.0 mi NW 8.1 mph - 0.00 in   Overcast
7:54 AM 64.0 °F 60.1 °F 87% 29.63 in 10.0 mi NW 6.9 mph - N/A   Overcast
8:09 AM 64.0 °F 61.0 °F 90% 29.70 in 10.0 mi WNW 10.4 mph - N/A   Overcast
8:51 AM 66.2 °F 62.6 °F 88% 29.71 in 10.0 mi WNW 8.1 mph - 0.01 in   Overcast
8:54 AM 66.9 °F 62.1 °F 84% 29.65 in 10.0 mi NW 11.5 mph - 0.01 in   Overcast
9:16 AM 66.0 °F 59.0 °F 78% 29.73 in 10.0 mi NNW 9.2 mph - N/A   Mostly Cloudy
9:26 AM 64.9 °F 59.0 °F 81% 29.73 in 10.0 mi NW 8.1 mph 16.1 mph N/A   Mostly Cloudy
9:54 AM 64.0 °F 57.9 °F 80% 29.68 in 10.0 mi NW 9.2 mph - N/A   Overcast
10:54 AM 69.1 °F 60.1 °F 73% 29.69 in 10.0 mi Variable 3.5 mph - N/A   Overcast
11:33 AM 71.1 °F 59.0 °F 66% 29.78 in 10.0 mi NW 11.5 mph - N/A   Overcast
11:54 AM 70.0 °F 57.9 °F 65% 29.72 in 10.0 mi North 10.4 mph - N/A   Mostly Cloudy
12:13 PM 71.1 °F 57.9 °F 63% 29.79 in 10.0 mi North 8.1 mph - N/A   Mostly Cloudy
12:24 PM 70.0 °F 57.9 °F 65% 29.79 in 10.0 mi NW 4.6 mph - N/A   Mostly Cloudy
12:32 PM 72.0 °F 59.0 °F 64% 29.78 in 10.0 mi WNW 5.8 mph - N/A   Mostly Cloudy
12:41 PM 72.0 °F 59.0 °F 64% 29.78 in 10.0 mi WNW 8.1 mph - N/A   Mostly Cloudy
12:54 PM 73.9 °F 59.0 °F 59% 29.71 in 10.0 mi NW 10.4 mph - N/A   Scattered Clouds
1:54 PM 71.1 °F 59.0 °F 66% 29.72 in 10.0 mi WNW 11.5 mph - N/A   Overcast
3:54 PM 73.0 °F 57.0 °F 57% 29.73 in 10.0 mi Variable 6.9 mph - N/A   Mostly Cloudy
4:54 PM 73.9 °F 55.9 °F 53% 29.73 in 10.0 mi WNW 13.8 mph - N/A   Clear
5:54 PM 73.0 °F 54.0 °F 51% 29.75 in 10.0 mi WNW 10.4 mph - N/A   Partly Cloudy
6:54 PM 72.0 °F 54.0 °F 53% 29.75 in 10.0 mi Variable 6.9 mph - N/A   Clear
7:54 PM 66.9 °F 55.0 °F 66% 29.77 in 10.0 mi WNW 4.6 mph - N/A   Clear
8:54 PM 63.0 °F 55.0 °F 75% 29.79 in 10.0 mi West 5.8 mph - N/A   Clear
9:54 PM 59.0 °F 54.0 °F 83% 29.83 in 10.0 mi Calm Calm - N/A   Clear
10:54 PM 57.0 °F 53.1 °F 87% 29.83 in 10.0 mi Calm Calm - N/A   Partly Cloudy
11:54 PM 55.9 °F 53.1 °F 90% 29.83 in 10.0 mi Calm Calm - N/A   Clear